Tracking 28091 objects as of 29-Sep-2023
HD Live streaming from Space Station
objects crossing your sky now

STARLINK-2693

Track STARLINK-2693 now!
10-day predictions
STARLINK-2693 is classified as:


NORAD ID: 48461
Int'l Code: 2021-040AK
Perigee: 553.5 km
Apogee: 555.2 km
Inclination: 53.1 °
Period: 95.6 minutes
Semi major axis: 6925 km
RCS: Unknown
Launch date: May 9, 2021
Source: United States (US)
Launch site: AIR FORCE EASTERN TEST RANGE (AFETR)
Your satellite tracking list
Your tracking list is empty




NASA's NSSDC Master Catalog

Two Line Element Set (TLE):
1 48461U 21040AK  23272.16950446  .00003528  00000-0  25572-3 0  9993
2 48461  53.0527 233.2975 0001237 121.3799 238.7311 15.06386083133319
Source of the keplerian elements: AFSPC